Location: Abyssinia Baptist Church
(32.7840°N, 96.7578°W)
Time: 21:47:07
(UTC+00:00)

SKYMED 2 - Pass Details

Date: 09 July 2022
Orbit: 621 x 623 km, 97.9° (Epoch: 09 August)

Event Time Altitude Azimuth Distance (km) Brightness Sun altitude
Rises 10:43:31 0° 127° (SE) 2,893 7.3 -8.6°
Reaches altitude 10° 10:46:25 10° 106° (ESE) 1,991 6.8 -8.1°
Maximum altitude 10:49:03 16° 68° (ENE) 1,633 7.1 -7.6°
Drops below altitude 10° 10:51:41 10° 31° (NNE) 1,998 7.3 -7.2°
Sets 10:54:36 0° 10° (N) 2,908 7.7 -6.7°
